GEFSSGP_con_prob3kmehi_252.txt.gz
EHI
6 3 1 0 0 0 0 0 0 0 0 0 0 0 0 0 0 0 0 0 0 0 0 1 2 2 1 2 3 3 1 0 0 0 0 0 1 2 2 2 3 2 1 2 2 1 1 3 5
3 2 0 0 0 0 0 0 0 0 0 0 0 0 0 0 0 0 0 0 0 0 0 0 1 1 1 2 4 4 2 0 0 0 0 0 1 2 3 3 4 4 2 2 2 2 1 3 5
2 1 0 0 0 0 0 0 0 0 0 0 0 0 0 0 0 0 0 0 0 0 0 1 2 2 2 3 5 5 3 1 0 0 0 0 1 3 4 5 5 4 3 2 2 2 2 3 4
1 0 0 0 0 0 0 0 0 0 0 0 0 0 0 0 0 0 0 0 0 0 0 3 6 7 6 6 5 4 2 1 0 0 0 1 3 4 4 4 5 4 3 1 1 1 2 2 2
0 0 0 0 0 0 0 0 0 0 0 0 0 0 0 0 0 0 0 0 0 1 1 4 8 10 8 6 3 1 1 1 0 0 1 2 3 4 4 3 2 2 2 1 0 1 1 0 0
0 0 0 0 0 0 0 0 0 0 0 0 0 0 0 0 0 0 1 1 2 2 3 5 7 9 8 5 2 0 0 0 0 1 1 2 3 3 2 1 0 1 1 0 1 1 1 1 1
0 0 0 0 0 0 0 0 0 0 0 0 0 0 0 0 0 0 1 2 2 3 4 5 6 6 5 2 1 1 0 0 0 0 1 1 2 2 1 1 1 1 1 1 2 2 2 2 2
0 0 0 0 0 0 0 0 0 1 1 1 1 1 2 1 1 1 1 1 1 3 3 4 5 3 2 1 2 2 1 0 0 0 1 1 1 1 1 2 3 3 2 3 3 3 3 4 4
0 0 0 0 0 0 0 0 1 2 2 2 2 2 3 3 2 2 2 1 1 2 2 3 3 1 0 1 2 2 1 0 0 0 1 1 1 0 1 2 4 4 3 3 3 3 3 4 3
0 0 0 0 0 0 0 1 2 3 2 1 1 2 3 3 3 3 3 2 1 1 1 1 1 1 0 0 1 1 0 0 0 0 1 1 0 0 0 2 3 3 2 2 2 2 2 2 2
0 0 0 0 0 0 1 2 3 2 1 0 1 2 3 3 3 3 2 2 1 0 0 0 0 0 0 0 0 0 0 0 0 0 0 0 0 0 0 1 1 1 1 1 1 0 1 1 0
0 0 0 0 1 1 2 3 3 2 1 0 1 3 3 2 2 1 1 1 0 0 0 0 0 0 0 0 0 0 0 0 0 0 0 0 0 0 0 0 0 0 0 0 0 0 0 0 0
0 0 0 1 2 3 3 3 3 2 1 1 2 2 2 1 1 0 0 0 0 0 0 0 0 0 0 0 0 0 0 0 0 0 0 0 0 0 0 1 1 0 0 0 0 0 0 0 0
0 0 0 1 2 3 3 3 3 2 1 2 2 1 1 0 0 0 0 0 0 0 0 0 0 0 0 0 0 0 0 0 1 1 0 0 0 0 1 1 1 0 0 0 0 0 0 0 0
0 0 0 1 2 3 3 3 3 2 2 2 2 1 0 0 0 0 0 0 0 0 0 0 0 0 0 1 1 1 0 0 1 1 0 0 0 0 1 1 1 0 0 0 0 0 0 0 0
0 0 0 0 1 3 3 3 3 3 3 2 1 0 0 0 0 0 0 0 0 0 0 0 0 0 0 0 0 0 0 0 1 1 0 0 0 0 0 0 0 0 0 0 0 0 0 0 0
0 0 0 0 1 2 3 2 2 2 3 2 0 0 0 0 0 0 0 0 0 0 0 0 0 0 0 0 0 0 0 0 0 0 0 0 0 0 0 0 0 0 0 0 0 0 0 0 0
0 0 0 0 1 2 2 1 1 1 2 2 1 1 0 0 0 0 0 1 1 0 0 0 0 0 0 0 0 0 0 0 0 0 0 0 0 0 0 0 0 0 0 0 0 0 0 0 0
0 0 0 0 0 1 1 0 0 1 1 2 2 1 1 1 1 1 2 2 2 1 0 0 0 0 0 0 0 0 0 0 0 0 0 0 0 0 0 0 0 0 0 0 0 0 0 0 0
0 0 0 0 0 0 0 0 0 0 0 1 1 1 1 2 2 3 3 3 2 1 1 1 0 0 0 0 0 0 0 0 0 0 0 0 0 0 0 0 0 0 0 0 0 0 0 0 0
0 0 0 0 0 0 0 0 0 0 0 0 1 1 2 3 3 3 4 4 3 3 2 1 0 0 0 0 0 0 0 0 0 0 0 0 0 0 0 0 0 0 0 0 0 0 0 0 0
0 0 0 0 0 0 0 0 0 0 0 0 0 0 1 3 3 3 4 4 5 5 3 1 0 0 0 0 0 0 0 0 0 0 0 0 0 0 0 0 0 0 0 0 0 1 1 0 0
0 0 0 0 0 0 0 0 0 0 0 0 0 0 1 2 3 4 5 5 5 5 3 1 0 0 0 0 0 0 0 0 0 0 0 0 0 0 0 0 0 0 0 0 1 1 1 0 0
0 0 0 0 0 0 0 0 0 0 0 0 0 0 0 1 3 4 5 5 6 6 4 2 1 0 0 0 1 1 1 0 0 0 0 0 0 0 0 0 0 0 0 0 1 1 0 0 0
0 0 0 0 0 0 0 0 0 0 0 0 0 0 0 1 2 3 5 7 8 7 6 5 3 2 1 1 2 2 1 0 0 0 0 0 0 0 0 0 0 0 0 0 1 1 1 1 1
0 0 0 0 0 0 0 0 0 0 0 0 0 0 0 1 2 3 5 9 11 9 9 9 7 5 4 4 4 3 2 1 1 0 0 0 0 0 0 0 0 0 0 0 0 1 2 2 2
0 0 0 0 0 0 0 0 0 0 0 1 1 1 1 1 2 3 5 9 13 13 12 13 11 9 8 7 6 5 3 3 2 1 0 0 0 0 0 0 0 0 0 0 0 1 1 1 2
0 0 0 0 0 0 0 0 0 0 1 2 3 3 3 3 3 3 4 9 14 14 14 15 14 12 10 10 8 7 6 4 3 2 1 1 1 1 1 1 0 0 0 0 0 0 0 1 2
0 0 0 0 0 0 0 0 0 0 2 3 4 5 5 4 3 4 5 8 12 14 14 15 14 13 12 12 11 9 7 5 3 2 2 2 2 3 3 3 1 0 0 0 0 0 0 1 2
0 0 0 0 0 0 0 0 0 1 2 3 4 6 6 4 4 5 5 7 11 14 14 15 14 13 13 13 12 10 7 5 4 2 1 1 2 4 5 4 2 1 0 0 0 0 1 2 4

GEFSSGP_con_prob3kmehi_258.txt.gz
EHI
6 4 4 6 5 2 0 0 0 0 0 0 0 0 0 0 0 0 0 0 0 0 1 2 3 3 1 0 0 1 2 2 3 3 3 4 5 5 4 4 3 3 5 5 2 1 1 3 5
3 3 4 5 3 1 0 0 0 0 0 0 0 0 0 0 0 0 0 0 0 0 1 2 3 3 2 0 0 0 1 1 1 1 1 2 3 3 3 3 3 4 6 4 1 1 1 3 4
1 3 4 3 1 0 0 0 0 0 0 0 0 0 0 0 0 0 0 0 1 1 1 2 3 3 1 0 0 0 0 0 0 0 0 1 1 1 1 2 3 4 5 3 1 0 1 2 4
3 4 4 1 0 0 0 0 0 0 0 0 0 1 1 1 0 0 0 0 1 1 1 2 3 2 1 0 0 0 0 1 1 0 0 0 0 0 0 1 2 4 3 1 0 0 0 1 2
7 5 2 0 0 0 0 0 0 0 0 0 0 1 1 1 0 0 0 0 0 0 0 1 2 1 0 0 0 0 1 2 2 1 1 1 0 0 0 2 3 4 3 1 0 0 0 0 1
7 4 1 0 0 0 0 0 0 0 0 0 0 0 0 0 0 0 0 0 0 0 0 0 0 0 0 0 0 0 1 2 3 3 2 2 1 0 0 2 4 3 2 1 0 0 0 0 0
3 2 0 0 0 0 0 0 0 0 0 0 0 0 0 0 0 0 0 0 0 0 0 0 0 0 0 1 1 0 0 1 2 3 3 3 1 1 1 2 3 2 2 1 1 1 1 1 1
1 0 0 0 0 0 0 0 0 0 0 0 0 0 1 1 1 1 0 0 0 0 0 0 0 0 1 1 0 0 0 0 1 2 3 3 2 2 2 2 3 3 2 2 2 2 2 2 2
0 0 0 0 0 0 0 0 0 0 1 1 1 0 1 2 3 2 1 0 0 0 0 0 0 0 0 0 0 0 0 0 1 1 1 2 1 1 1 1 2 2 2 3 3 3 3 3 3
0 0 0 0 0 0 0 0 0 0 1 2 2 2 2 3 3 3 2 1 1 1 1 0 0 0 0 0 0 0 0 0 1 0 0 0 0 0 0 0 1 1 1 2 3 3 3 3 3
0 0 0 0 0 0 0 0 0 0 2 3 3 3 3 3 3 2 1 1 2 2 2 1 0 0 0 0 0 0 0 0 0 0 0 0 0 0 0 1 1 2 2 3 3 3 3 2 2
0 0 0 0 0 0 0 0 1 1 2 2 2 3 3 3 2 1 1 2 3 3 2 1 0 0 0 0 0 0 0 1 1 0 0 0 0 0 1 3 4 4 4 3 3 2 1 1 1
0 0 0 0 0 0 0 1 2 2 1 1 1 3 3 3 1 0 1 2 3 2 1 0 0 0 0 0 0 0 1 2 1 0 0 0 0 1 3 5 6 6 4 2 1 1 0 0 0
0 0 0 0 0 0 0 1 2 2 1 0 2 3 3 3 1 0 1 2 3 1 0 0 0 0 0 0 0 0 1 2 1 0 0 0 1 1 3 5 5 4 2 1 0 0 0 0 0
0 0 0 0 0 0 0 1 2 1 1 1 2 2 3 3 2 1 1 2 2 1 0 0 0 0 0 0 0 0 1 1 0 0 0 1 2 3 3 3 2 1 0 0 0 0 0 0 0
0 0 0 0 0 0 0 1 2 2 2 2 2 2 3 3 2 1 0 1 1 1 2 1 0 0 0 0 0 0 0 0 0 0 1 2 3 3 3 2 1 0 0 0 0 0 0 0 0
0 0 0 0 0 0 0 1 2 2 2 2 3 3 3 2 1 0 0 0 1 3 5 4 2 1 1 1 1 0 0 0 0 0 1 2 3 3 2 1 0 0 0 0 0 0 0 0 0
0 0 0 0 0 0 0 1 2 3 2 2 2 3 2 1 0 0 0 0 1 4 7 8 7 5 3 2 1 0 0 0 0 0 1 2 3 2 1 0 0 0 0 0 0 0 0 0 0
0 0 0 0 0 0 0 1 3 3 2 1 1 2 1 1 1 1 0 0 2 6 9 10 9 8 5 3 1 0 0 0 0 0 0 1 1 1 1 0 0 0 0 0 0 0 0 0 0
0 0 0 0 0 0 0 2 3 3 2 0 1 2 1 2 4 4 4 3 5 7 9 8 8 7 5 2 0 0 0 0 0 0 0 0 0 0 0 0 0 0 0 0 0 0 0 0 0
0 0 0 0 0 0 0 1 3 3 2 1 2 2 2 4 7 9 9 8 7 6 7 6 7 7 5 3 1 0 0 0 0 0 0 0 0 0 0 0 0 0 0 0 1 0 0 0 0
0 0 0 0 0 0 0 1 3 4 4 4 4 4 3 5 9 13 14 12 9 7 6 7 8 9 8 6 2 0 0 0 0 0 0 0 1 2 1 0 0 0 0 0 0 0 1 2 1
0 0 0 0 0 0 0 1 3 5 5 6 6 6 5 5 8 12 14 14 11 8 8 9 12 13 12 9 5 2 0 1 1 1 0 1 2 3 2 1 0 0 0 0 0 1 2 3 4
0 0 0 0 0 0 0 1 3 4 4 5 6 6 4 3 5 9 12 13 13 12 13 15 19 19 15 11 8 4 2 2 2 2 2 2 3 3 3 1 0 1 1 1 1 1 3 4 5
0 0 0 0 0 0 1 2 3 3 3 3 3 3 2 2 4 7 9 12 14 16 19 23 25 24 18 13 11 8 4 2 2 2 2 2 3 4 3 2 1 2 3 3 3 3 3 4 5
0 0 0 0 0 0 1 2 3 2 2 2 2 2 2 2 4 6 8 10 14 18 25 28 28 27 22 17 14 11 8 4 2 1 1 3 4 4 4 3 3 4 4 5 6 5 4 5 5
0 0 0 0 0 0 2 2 2 2 2 3 3 3 3 4 6 8 8 10 13 19 26 30 31 29 24 19 17 15 12 10 6 3 2 4 6 6 4 5 6 7 8 9 9 8 7 7 6
0 0 0 0 0 0 1 2 2 2 3 3 4 6 6 8 10 11 11 12 15 18 23 28 31 29 23 19 17 16 16 16 13 8 5 6 7 8 7 8 9 10 11 13 12 11 11 10 8
0 0 0 0 0 0 1 1 1 2 3 3 4 7 9 11 13 14 15 15 15 16 19 23 26 25 21 18 17 17 18 19 18 15 11 10 10 11 12 13 13 12 12 14 14 13 14 13 11
0 0 0 0 0 0 0 1 1 2 3 4 5 7 10 12 14 16 17 15 14 14 15 19 22 22 19 17 17 17 19 19 19 18 16 14 13 14 16 15 13 12 12 13 14 14 15 15 13

GEFSSGP_con_prob3kmehi_264.txt.gz
EHI
7 12 23 31 25 11 2 0 0 0 0 0 0 0 0 0 0 0 1 3 4 3 2 2 1 0 0 1 2 3 3 2 2 2 3 4 6 7 7 6 6 6 2 1 2 4 6 5 3
7 16 26 27 17 6 1 0 0 0 0 0 0 0 0 0 0 0 1 3 4 4 3 2 1 0 0 1 2 2 2 1 1 1 2 2 4 5 5 4 6 6 3 0 1 3 4 4 3
14 23 28 19 8 2 0 0 0 0 0 0 0 1 1 1 0 0 1 3 4 4 3 2 1 0 0 0 1 1 1 0 0 0 0 1 2 3 2 3 5 5 2 0 0 1 1 2 3
28 32 26 12 3 0 0 0 0 0 0 0 1 2 2 1 0 0 1 3 3 2 1 1 1 0 0 1 1 1 0 0 0 0 0 1 1 1 1 2 3 3 1 0 0 0 0 1 2
38 33 18 5 1 0 0 0 0 0 0 0 1 3 3 1 0 0 1 2 2 1 0 0 1 2 1 1 2 1 0 0 0 0 0 0 0 0 0 1 3 3 1 1 1 0 0 1 1
34 23 9 1 0 0 0 0 0 0 0 0 2 3 2 1 0 0 0 1 1 1 0 0 2 3 2 3 3 1 0 1 1 1 0 0 0 0 0 1 3 4 2 1 0 0 0 1 2
20 12 3 0 0 0 0 0 0 0 0 0 1 2 1 0 0 0 0 0 1 1 1 0 1 2 3 4 3 1 0 1 1 1 0 0 0 0 0 1 2 2 1 0 0 0 0 1 3
7 4 1 0 0 0 0 0 0 0 0 0 0 0 0 0 0 0 0 0 2 2 1 0 0 1 2 3 2 1 0 0 0 0 0 1 0 0 1 1 1 1 1 1 1 1 1 3 5
1 0 0 0 0 0 0 0 0 0 0 0 0 1 1 1 1 1 0 0 1 2 1 0 1 2 2 2 1 0 0 0 0 0 1 1 1 1 2 2 2 2 2 2 2 2 3 4 5
1 0 0 0 0 0 0 0 0 0 0 1 1 2 2 2 4 3 1 0 1 2 2 1 2 3 4 3 1 0 0 0 0 1 2 3 3 3 3 3 3 3 3 3 3 3 3 4 4
1 0 0 0 0 0 0 0 0 0 1 2 2 2 1 2 4 4 2 0 1 2 4 4 4 5 6 5 3 1 1 1 2 2 4 6 6 4 3 3 4 3 3 3 3 3 3 3 3
0 0 0 0 0 0 0 0 0 1 2 3 2 2 2 3 4 4 2 1 1 2 4 5 6 7 8 8 5 4 4 4 4 4 5 6 5 4 3 4 4 4 3 3 3 3 3 3 3
0 0 0 0 0 0 0 0 0 2 3 2 2 2 3 3 3 3 3 3 3 4 5 6 7 9 11 9 7 6 5 4 4 4 4 5 5 4 3 4 4 4 3 3 2 2 2 3 3
0 0 0 0 0 0 1 0 0 1 2 2 3 4 4 4 3 3 5 7 8 7 7 7 9 10 10 8 7 6 6 4 4 4 4 5 5 5 4 4 4 4 3 1 1 1 2 2 3
0 0 0 0 0 0 1 1 0 0 2 4 5 5 6 6 5 5 8 10 11 11 9 8 9 9 7 5 5 6 5 4 4 5 4 4 4 5 5 4 4 3 2 1 0 0 1 1 2
0 0 0 0 0 0 1 2 1 1 3 6 7 8 9 10 9 10 12 13 14 16 13 8 6 7 7 6 5 5 4 4 3 3 3 2 3 4 5 5 4 3 2 1 0 0 0 1 2
0 0 0 0 0 0 2 3 3 2 3 6 8 10 11 12 13 15 16 16 19 21 17 10 6 6 6 6 6 6 5 5 3 2 2 2 2 3 3 4 4 3 2 0 0 0 0 1 3
0 0 0 0 0 1 2 3 3 3 3 5 9 10 12 14 15 16 18 20 22 25 22 16 10 7 6 5 6 6 7 7 4 3 4 3 2 2 2 2 3 3 2 1 1 1 1 2 3
0 0 0 0 0 1 2 3 3 2 3 6 9 10 13 16 19 20 20 23 27 32 32 27 19 11 7 5 4 5 6 5 4 5 8 7 3 2 3 3 4 4 4 4 3 3 2 2 2
0 0 0 0 0 1 2 3 3 2 3 5 9 10 12 18 25 27 27 28 35 43 42 35 27 19 11 7 4 3 3 2 3 7 11 11 7 5 6 7 7 8 8 7 5 5 4 3 2
0 0 0 0 0 1 2 2 3 3 3 5 8 8 10 18 29 35 34 34 41 48 45 37 34 28 20 13 8 5 3 2 3 7 11 11 9 8 9 12 13 13 11 9 8 9 8 5 3
0 0 0 0 0 0 1 1 3 5 5 6 7 7 9 18 32 40 39 38 40 44 43 40 40 36 29 21 15 12 9 6 6 9 12 12 10 9 10 13 16 17 15 13 12 13 13 9 6
0 0 0 0 0 0 0 0 2 5 6 7 7 7 10 20 34 42 42 38 36 39 42 45 47 43 35 27 21 18 14 12 11 13 16 17 15 12 11 13 17 18 17 16 15 16 17 13 9
0 0 0 0 0 0 0 0 2 5 6 8 9 9 12 20 32 40 43 41 38 39 43 50 55 51 43 32 24 19 16 15 17 18 20 21 21 19 17 18 19 18 17 17 17 17 17 14 12
0 0 0 0 0 0 0 1 3 5 7 9 10 11 13 18 26 37 46 49 48 46 49 55 61 59 50 38 28 22 19 17 18 19 21 21 21 24 26 25 24 21 17 16 17 17 16 15 14
0 0 0 0 0 0 1 2 4 7 8 9 10 10 11 14 21 33 46 54 55 54 55 58 63 64 55 43 35 29 24 20 17 18 19 18 18 22 27 28 26 24 19 16 16 15 14 15 15
0 0 0 0 0 0 1 3 5 6 7 7 8 8 10 14 20 30 43 51 54 56 57 58 62 63 56 46 40 34 28 22 19 19 19 18 17 20 25 27 25 23 20 18 17 15 15 17 18
0 0 0 0 0 0 1 2 3 4 6 7 6 6 9 14 20 29 39 45 48 51 54 56 59 60 56 48 42 37 31 24 21 21 23 22 21 21 25 27 25 23 22 20 18 17 18 20 21
0 0 0 0 0 0 0 1 2 4 6 8 7 6 9 15 21 28 37 43 44 44 46 51 55 57 54 48 43 39 35 29 24 23 25 25 23 23 25 27 27 26 24 21 20 20 19 20 20
0 0 0 0 0 0 1 2 3 5 7 9 9 9 11 16 21 28 37 43 43 40 41 46 52 55 52 48 44 40 37 34 28 24 25 25 24 24 25 28 29 27 24 23 23 22 20 19 19

GEFSSGP_con_prob3kmehi_270.txt.gz
EHI
4 1 0 0 0 0 0 0 0 0 0 0 0 0 0 0 0 0 0 0 2 2 2 3 4 3 1 1 3 3 2 1 0 1 2 4 5 4 3 3 2 1 1 1 1 1 1 1 0
2 1 0 0 0 0 0 0 0 0 0 0 0 0 0 0 0 0 0 1 3 3 1 2 4 3 1 2 3 3 3 1 1 2 3 5 6 6 5 4 3 1 0 0 0 0 1 1 0
1 1 1 1 0 0 0 0 0 0 0 0 0 0 0 0 0 0 1 2 3 3 2 3 6 5 3 3 3 3 3 2 2 4 6 6 7 7 5 4 4 2 0 0 1 1 3 3 2
1 1 2 1 0 0 0 0 0 0 0 0 0 0 0 0 1 1 2 3 4 3 3 4 7 7 4 2 2 2 2 2 3 5 7 7 6 5 4 4 5 3 1 0 1 3 5 5 4
2 2 1 0 0 0 0 0 0 0 0 1 2 1 0 1 3 4 3 3 4 4 3 5 7 7 3 1 1 1 2 2 3 5 6 5 4 4 3 4 4 2 1 0 1 3 5 5 5
6 3 1 0 0 0 0 0 1 1 1 2 3 2 1 2 4 4 3 3 3 3 3 4 5 5 3 1 1 1 3 4 3 3 3 4 3 3 3 3 2 1 0 0 1 2 4 5 5
8 5 2 0 0 0 0 0 0 1 2 3 2 1 1 2 3 2 1 1 3 3 3 3 2 3 3 2 1 1 3 4 2 1 2 3 3 3 3 3 2 0 0 1 1 2 4 5 6
7 4 1 0 0 0 0 0 0 1 3 3 1 1 2 3 3 2 1 1 2 3 3 2 1 1 1 1 1 1 1 2 1 0 1 2 3 2 3 2 1 0 0 1 1 2 3 5 6
3 1 0 0 0 0 0 0 1 2 3 3 1 1 3 5 5 4 3 1 1 1 2 1 0 0 0 0 0 0 0 0 0 0 1 1 1 1 1 1 1 0 0 1 1 1 2 3 4
1 0 0 0 0 0 0 1 2 4 4 3 2 3 6 8 8 7 5 2 1 1 0 0 0 0 0 0 0 0 0 0 0 0 0 0 0 0 0 0 0 0 0 0 1 1 1 2 2
0 0 0 0 0 0 1 2 3 4 3 2 3 5 7 8 9 9 6 3 1 0 0 0 0 0 0 0 0 0 0 0 0 0 0 0 0 0 0 0 0 0 0 0 0 0 0 1 1
0 0 0 0 0 0 1 2 3 2 1 1 3 4 5 6 8 8 6 3 1 0 0 0 0 0 0 0 0 0 0 0 0 0 0 0 0 0 0 0 0 0 0 0 0 0 0 0 0
0 0 0 0 0 0 1 1 1 1 2 3 3 3 4 4 6 7 7 4 1 1 0 0 0 0 0 0 0 0 0 0 0 0 0 0 0 0 0 0 0 0 0 0 0 0 0 0 0
0 0 0 0 0 0 0 0 1 3 5 5 4 4 3 3 5 7 7 5 4 3 1 0 0 0 0 0 0 0 0 0 0 0 0 0 0 0 0 0 0 0 0 0 0 0 0 0 0
0 0 0 0 0 0 0 0 1 4 6 6 6 5 5 4 5 8 9 9 7 5 3 1 0 0 0 0 0 0 0 0 0 0 0 0 0 0 0 0 0 0 0 0 0 0 0 0 0
0 0 0 0 0 0 0 0 1 4 6 6 6 6 6 6 6 7 10 11 9 6 4 1 0 0 0 0 0 0 0 0 0 0 0 0 0 0 0 0 0 0 0 0 0 0 0 0 0
0 0 0 0 0 1 1 0 1 2 3 4 4 4 5 6 8 9 11 12 11 9 7 3 1 2 1 0 0 0 0 0 0 0 0 0 0 0 0 0 0 0 0 0 0 0 0 0 0
0 0 0 1 1 1 1 0 1 2 3 3 4 4 4 6 8 11 14 16 17 16 12 8 4 3 2 1 0 0 0 0 0 0 0 0 0 0 0 0 0 0 0 0 0 0 0 0 0
0 0 1 1 1 1 1 0 1 3 5 6 6 6 5 5 7 12 18 21 22 20 16 12 8 5 3 1 0 0 0 0 0 0 0 0 0 0 0 0 0 0 0 0 0 0 0 0 0
0 1 1 1 1 0 0 0 1 3 6 7 7 6 6 6 9 15 22 24 24 21 17 13 10 8 6 3 1 0 0 0 0 0 0 0 0 0 0 0 0 0 0 0 0 0 0 0 0
0 1 1 1 0 0 0 0 1 3 5 5 6 7 9 11 14 21 27 27 24 21 17 14 12 10 8 5 2 1 0 0 0 0 1 1 1 0 0 0 0 0 0 0 0 0 0 0 0
0 0 1 1 0 0 0 0 2 3 4 5 6 9 13 15 17 24 31 31 26 20 18 16 14 12 9 6 4 2 0 0 0 0 1 2 2 1 0 0 0 0 0 0 0 0 0 0 0
0 0 0 0 0 0 0 1 2 3 4 5 7 10 15 15 16 21 28 32 29 23 21 20 17 14 11 9 7 4 1 0 0 0 1 2 2 1 0 0 0 0 0 0 0 0 0 0 0
0 0 0 0 0 0 0 1 2 3 4 5 7 9 12 13 14 16 23 30 32 29 27 25 22 18 16 15 12 8 3 0 0 0 0 1 2 2 1 0 0 0 0 0 0 0 0 0 0
0 0 0 0 0 0 0 0 1 2 4 5 7 9 11 12 13 14 18 26 31 33 34 32 27 23 21 19 16 12 6 2 0 0 0 0 2 2 1 0 0 0 0 1 1 1 0 0 0
0 0 0 0 0 0 0 1 1 3 5 6 8 10 11 12 14 16 18 24 32 36 38 36 31 27 24 23 20 16 11 6 3 1 0 0 1 3 3 2 1 1 1 1 2 1 1 0 0
0 0 0 0 0 0 0 2 4 5 6 6 9 11 10 10 15 19 22 28 35 39 39 37 34 29 27 24 22 18 15 13 9 5 3 2 2 3 4 4 4 3 2 1 1 2 2 1 0
0 0 0 0 0 0 0 1 4 7 7 7 9 11 9 8 13 20 26 31 36 39 39 38 35 30 27 24 21 18 17 16 13 10 8 7 6 5 5 5 4 4 3 3 2 2 2 1 0
0 0 0 0 0 0 0 0 3 8 10 10 12 12 10 8 13 20 26 31 35 37 39 39 36 31 27 24 21 19 17 17 16 14 13 12 9 8 6 5 3 3 4 5 4 3 2 0 0
0 0 0 0 0 0 0 1 4 9 13 14 14 14 11 10 13 20 26 31 35 36 37 38 37 34 29 24 21 20 18 17 17 17 15 13 11 9 7 5 3 3 4 5 5 4 2 1 0

GEFSSGP_con_prob3kmehi_276.txt.gz
EHI
9 6 4 4 1 0 0 0 0 0 0 0 0 0 0 0 1 0 0 0 2 5 8 12 16 18 15 12 11 10 9 7 6 6 6 6 5 5 5 5 5 5 6 7 7 6 6 6 6
6 5 5 3 1 0 0 0 0 0 0 0 0 0 0 1 1 1 0 1 3 5 7 10 15 18 16 12 10 9 9 7 6 5 5 6 6 5 5 5 6 6 6 7 7 6 6 6 6
3 4 4 2 0 0 0 0 0 0 0 0 0 0 1 2 2 1 1 3 4 6 7 9 14 17 15 11 9 9 8 8 6 5 5 6 6 6 5 6 6 6 6 6 6 6 6 6 6
2 3 3 1 0 0 0 0 0 0 0 0 0 0 1 3 3 3 3 5 6 6 6 8 12 15 13 9 8 8 8 7 6 6 6 6 6 6 6 6 6 6 6 6 6 6 6 6 6
2 3 2 1 0 0 0 0 0 0 0 0 0 1 2 3 3 3 4 6 7 7 7 9 12 14 12 8 7 7 7 7 6 6 6 6 6 6 6 6 6 7 7 7 6 6 6 6 6
3 3 2 1 1 0 0 0 0 0 0 0 1 2 3 3 3 3 4 5 6 7 7 8 11 13 11 8 6 7 7 7 7 6 6 6 7 7 7 6 6 7 7 7 6 6 6 6 6
4 3 2 2 1 0 0 0 0 0 1 1 2 3 3 3 3 3 3 4 5 6 6 6 8 10 10 8 6 7 8 8 7 6 6 6 7 7 7 6 6 7 7 7 6 6 6 6 6
2 1 1 1 1 0 0 0 0 1 1 1 2 3 3 3 3 3 3 3 3 4 4 4 5 7 7 7 6 7 7 7 7 6 6 6 7 7 7 6 6 6 6 6 6 6 6 6 6
1 0 0 0 0 0 0 0 1 2 1 1 2 3 3 4 3 3 3 3 3 3 3 3 4 5 6 6 6 6 6 6 6 6 6 6 6 6 6 6 6 6 6 6 6 7 7 7 6
1 0 0 0 0 0 0 0 1 2 2 1 3 4 5 4 4 3 3 3 3 3 3 3 3 4 5 6 6 6 6 6 6 6 6 6 6 6 6 6 6 6 6 7 7 7 7 6 6
1 0 0 0 0 0 0 1 1 2 2 2 4 6 7 6 4 3 3 3 3 3 3 3 3 3 4 5 6 6 5 5 5 6 6 6 6 6 6 6 6 6 6 6 7 7 5 5 5
1 0 0 0 0 0 1 1 1 2 2 2 5 9 10 8 5 3 3 3 3 3 3 3 3 3 3 4 5 4 4 4 4 5 5 5 4 4 5 5 5 6 5 4 5 4 3 3 3
1 0 0 0 0 1 1 1 1 2 2 4 7 9 10 9 7 4 3 2 2 3 3 3 3 3 3 3 3 3 3 3 3 4 4 3 3 3 4 4 4 4 3 3 3 4 3 1 1
1 0 0 0 0 1 2 1 1 1 3 6 8 9 10 9 8 6 4 2 1 2 3 3 3 3 3 3 3 2 1 2 3 3 3 3 3 3 3 3 3 3 3 3 4 4 3 1 0
0 0 0 0 0 0 1 1 0 1 4 6 8 9 10 10 9 7 5 2 1 1 3 3 3 3 3 3 2 1 1 1 2 3 3 3 4 3 3 3 3 2 2 3 4 3 2 2 1
0 0 0 0 0 0 1 2 1 2 4 5 6 8 9 9 8 6 4 3 1 1 2 3 3 3 3 1 1 1 0 0 1 3 3 4 4 4 3 3 3 2 2 3 3 2 1 2 3
0 0 0 0 0 1 2 3 3 3 3 4 4 5 7 7 7 6 4 2 1 1 3 3 3 3 2 1 0 0 0 0 1 2 3 3 4 3 3 3 2 2 2 3 2 1 1 2 3
0 0 0 0 0 1 2 2 3 3 3 3 3 3 4 5 6 5 4 3 3 3 4 3 3 2 1 0 0 0 0 0 0 1 1 3 3 3 2 1 1 2 3 3 1 0 1 2 2
0 0 1 0 0 1 1 1 1 2 3 4 3 3 3 4 4 4 4 5 6 6 5 3 2 1 0 0 0 0 0 0 0 0 1 2 3 3 1 1 1 1 2 2 1 0 0 1 1
0 0 0 0 0 0 0 0 0 1 3 4 4 3 4 4 4 4 4 5 6 6 5 3 2 0 0 0 0 0 0 0 0 0 1 2 3 2 1 2 2 1 1 1 0 0 1 1 1
0 0 0 0 0 0 0 0 0 0 1 3 3 4 4 5 6 5 4 3 4 5 4 4 2 1 0 0 1 1 0 0 0 0 1 2 3 3 2 2 2 1 0 0 0 0 1 1 1
0 0 0 0 0 0 0 0 0 0 0 1 3 4 4 5 7 7 4 2 3 4 5 4 3 1 1 2 3 2 1 1 1 0 1 2 3 3 2 2 2 2 1 1 0 0 0 0 0
0 0 0 0 0 0 0 0 0 0 0 1 3 4 6 7 8 9 7 4 3 4 5 4 3 1 2 4 5 4 2 1 0 0 1 2 3 3 3 2 2 2 2 2 1 0 0 0 0
0 0 0 0 0 0 0 0 0 0 0 1 3 6 7 8 9 11 11 9 7 7 6 3 1 1 3 5 6 5 4 1 0 0 0 1 1 3 4 4 3 2 2 2 1 0 0 0 0
0 0 0 0 0 0 0 0 0 0 0 1 3 6 8 7 8 12 15 14 12 11 9 4 1 1 3 4 5 5 4 2 0 0 0 0 1 3 5 5 4 3 3 3 2 1 1 1 0
0 0 0 0 0 0 0 0 0 0 1 2 3 5 6 6 8 11 16 17 16 14 11 7 4 3 4 4 4 5 4 2 0 0 0 0 2 3 4 5 5 4 3 3 3 3 3 2 1
0 0 0 0 0 0 0 0 0 0 2 3 3 3 4 5 8 10 13 17 16 14 12 10 7 6 6 6 6 6 5 2 1 1 1 1 2 3 3 4 4 3 3 3 4 5 4 3 3
0 0 0 0 0 0 0 0 0 0 2 4 3 2 3 5 8 10 12 13 14 13 14 13 10 9 9 9 8 9 8 6 4 4 4 4 3 3 3 3 3 3 3 4 5 5 4 3 3
0 0 0 0 0 0 0 0 0 0 1 2 2 1 2 4 7 9 9 9 10 13 15 15 14 11 10 10 10 11 13 12 10 8 6 5 4 3 3 3 3 3 3 3 4 4 3 3 3
0 0 0 0 0 0 0 0 0 0 0 1 1 1 1 4 6 7 6 6 8 13 16 16 16 13 11 10 10 12 16 16 13 11 8 5 4 3 3 3 3 3 3 3 3 3 3 3 3

GEFSSGP_con_prob3kmehi_282.txt.gz
EHI
2 3 4 5 3 1 0 0 0 0 0 0 0 0 0 0 0 0 0 0 0 0 1 2 4 4 3 2 3 4 3 1 0 0 0 0 0 0 0 0 0 1 1 1 0 0 1 0 0
1 2 5 5 2 0 0 0 0 0 0 0 0 0 0 0 0 0 0 0 0 0 0 2 4 4 3 3 2 2 1 0 0 0 0 0 0 0 0 0 0 0 0 0 0 0 1 0 0
3 4 5 3 1 0 0 0 0 0 0 0 0 0 0 0 0 0 0 0 0 0 0 1 3 3 3 2 1 0 0 0 0 0 0 0 0 0 0 0 0 0 0 0 0 1 1 0 0
8 9 6 2 0 0 0 0 0 0 0 0 0 0 0 0 0 0 0 0 0 0 0 1 2 3 2 1 0 0 0 0 0 0 0 0 0 0 0 0 0 0 0 0 0 1 2 1 0
12 10 5 1 0 0 0 0 0 0 0 0 0 0 0 0 0 0 0 0 0 0 0 1 2 3 1 0 0 0 0 0 0 0 0 0 0 0 0 0 0 0 0 0 0 1 1 1 0
8 6 2 0 0 0 0 0 0 0 0 0 0 0 0 0 0 0 0 0 0 0 0 1 2 2 1 0 0 0 0 0 0 0 0 0 0 0 0 0 0 0 0 0 0 0 0 0 0
3 2 0 0 0 0 0 0 1 1 1 1 0 0 0 0 0 0 0 0 0 0 0 0 1 2 1 1 1 1 1 1 0 0 0 0 0 0 0 0 0 0 0 0 0 0 0 0 0
2 1 0 0 0 0 0 1 2 3 2 1 0 0 1 1 2 1 0 0 0 0 0 0 0 1 1 0 0 1 1 1 1 0 0 0 0 0 0 0 0 0 0 0 0 0 0 0 0
2 1 0 0 0 0 1 2 3 3 3 1 0 1 2 3 3 2 0 0 0 0 0 0 0 0 0 0 0 0 0 0 0 0 0 0 0 0 0 0 0 0 0 0 0 0 0 0 0
2 1 0 0 0 0 1 3 3 3 3 2 1 3 4 5 4 2 1 0 0 0 0 0 0 0 0 0 0 1 1 0 0 0 0 0 0 0 0 0 0 0 0 0 0 0 0 0 0
2 1 0 0 0 1 2 3 3 3 3 2 2 5 6 6 4 2 1 0 0 0 0 0 0 0 0 0 0 1 2 1 0 0 0 0 0 0 0 1 1 1 0 0 1 1 0 0 1
1 0 0 0 0 1 2 2 2 2 2 2 3 6 8 7 3 1 0 0 0 0 0 0 0 0 1 1 0 1 2 1 0 0 0 0 0 0 0 1 2 2 1 1 1 1 1 1 2
0 0 0 0 0 1 1 1 1 2 1 1 3 6 8 5 2 1 1 1 0 0 0 0 0 1 2 2 1 1 1 1 0 0 0 0 0 0 1 1 2 2 2 2 1 1 2 3 3
0 0 0 0 0 0 0 0 1 2 1 1 3 5 6 4 3 3 3 3 1 0 0 0 1 2 3 3 3 1 0 0 0 0 0 0 0 1 2 2 2 1 2 1 0 1 3 4 4
0 0 0 0 0 0 0 1 1 2 1 1 1 4 5 4 4 5 5 4 3 1 1 1 1 2 3 3 3 1 0 0 0 0 0 0 0 1 2 2 1 1 1 1 1 2 3 4 4
0 0 0 0 0 0 1 2 2 1 1 0 1 3 5 6 6 6 5 4 4 3 3 3 2 3 3 3 2 1 0 0 0 1 1 1 0 1 1 1 0 0 1 2 2 2 4 5 5
0 0 0 0 0 0 1 2 2 1 0 0 1 3 6 8 8 7 5 4 4 5 6 6 5 4 3 3 3 1 0 0 1 1 1 1 0 0 0 0 0 0 1 1 1 1 3 4 4
0 0 0 0 0 0 1 3 2 1 0 0 1 4 7 9 9 8 7 5 5 7 9 9 8 6 4 3 3 2 0 0 1 1 1 0 0 0 0 0 0 0 0 0 0 1 2 2 3
0 0 0 0 0 1 2 3 2 1 0 0 2 5 7 8 10 11 9 7 7 8 10 11 10 8 6 4 2 1 0 0 0 0 0 0 0 0 0 0 0 0 0 0 0 0 0 1 2
0 0 0 0 0 1 2 2 1 0 0 0 2 5 7 8 11 13 12 10 7 7 9 11 11 10 8 5 2 0 0 0 0 0 0 0 0 0 0 0 0 0 0 0 0 0 0 0 1
0 0 0 0 0 0 1 1 1 0 0 0 2 5 6 8 11 14 13 10 7 6 6 8 10 10 10 7 3 1 1 0 0 0 1 0 0 1 1 1 1 0 0 0 0 0 0 0 0
0 0 0 0 0 0 0 1 1 1 0 1 3 6 7 7 9 12 13 10 7 4 4 5 7 9 11 11 8 5 3 1 0 0 1 1 1 2 2 3 2 1 0 0 0 0 0 0 0
0 0 0 0 0 0 0 1 2 1 0 1 2 5 7 7 9 12 12 9 6 3 2 3 5 8 11 12 11 9 6 3 2 2 2 3 4 3 3 2 1 0 0 0 0 0 0 0 1
0 0 0 0 0 0 0 2 3 3 1 0 1 4 7 9 13 14 12 10 8 3 1 2 5 7 9 10 11 10 8 7 5 5 6 7 6 4 2 1 1 1 1 1 1 1 0 1 2
0 0 0 0 0 0 1 2 4 3 1 0 1 4 7 10 14 15 14 15 13 7 5 5 8 10 10 10 11 11 9 8 6 7 8 8 6 4 3 3 3 2 1 1 1 1 2 3 5
0 0 0 0 0 0 1 2 2 1 0 0 2 5 8 9 10 12 15 16 15 12 10 10 12 13 11 11 13 12 9 7 6 7 8 8 6 4 4 4 4 3 3 3 3 4 5 6 8
0 0 0 0 0 0 1 2 2 1 0 1 4 6 7 7 6 8 10 12 12 14 14 14 15 15 13 12 13 12 9 7 7 8 9 8 7 5 5 5 5 4 5 6 7 7 7 8 8
0 0 0 0 0 0 0 1 2 2 1 2 6 8 7 6 5 5 7 8 10 12 15 16 16 16 14 12 12 11 10 9 9 9 9 9 8 8 7 6 6 6 6 8 9 8 7 8 9
0 0 0 0 0 0 0 1 2 3 1 3 7 10 10 8 6 5 7 9 10 11 13 15 15 14 12 10 10 10 11 12 12 12 10 10 10 10 9 8 9 8 7 7 10 10 8 8 10
0 0 0 0 0 0 0 0 1 1 1 3 8 11 13 12 9 7 8 10 11 11 12 12 13 12 10 8 9 11 13 15 16 14 12 11 12 12 11 9 9 9 7 7 10 10 8 9 11

GEFSSGP_con_prob3kmehi_288.txt.gz
EHI
2 5 12 20 21 10 2 0 0 0 0 0 0 0 0 0 0 0 0 2 3 2 2 3 5 6 5 4 1 0 0 1 2 1 0 0 0 0 0 0 0 0 1 0 0 0 0 1 2
4 9 18 23 16 5 1 0 0 0 0 0 0 0 0 0 0 0 1 2 3 2 2 4 6 6 5 3 2 1 0 2 2 2 0 0 0 0 0 0 0 0 1 1 1 0 0 1 2
12 19 26 21 9 1 0 0 0 0 0 0 0 0 0 0 0 0 1 2 3 3 3 5 6 5 3 2 2 1 0 1 1 1 0 0 0 0 0 0 0 0 1 1 1 0 0 0 1
26 31 29 15 4 0 0 0 0 0 0 0 0 0 0 0 0 0 0 1 3 3 3 5 7 5 2 1 1 1 0 0 0 0 0 0 0 0 0 0 0 0 0 1 1 0 0 0 0
36 32 20 7 1 0 0 0 0 0 0 0 0 1 1 1 0 0 0 1 3 4 4 5 7 6 4 2 1 0 0 0 0 0 1 0 0 0 0 0 0 0 0 0 0 0 1 1 0
35 23 9 2 0 0 0 0 0 0 0 0 0 1 1 1 0 0 0 1 2 4 3 4 6 6 5 3 2 1 0 0 0 0 0 0 0 1 1 1 0 0 0 0 0 0 1 1 1
26 14 4 0 0 0 0 0 1 1 1 0 0 1 1 0 0 0 0 1 2 3 3 2 3 4 4 3 3 2 0 0 0 0 0 0 0 1 2 2 0 0 0 0 0 0 1 2 2
11 6 1 0 0 0 0 1 2 2 1 0 0 1 1 0 0 0 1 2 2 3 3 1 1 3 3 2 3 3 2 1 1 1 1 1 0 1 2 1 0 0 0 0 0 0 1 2 2
2 1 0 0 0 0 1 2 3 3 2 1 0 1 1 1 0 0 1 2 2 3 3 2 2 3 3 3 4 4 3 3 2 2 3 2 1 1 1 1 0 0 0 0 0 0 0 1 1
1 1 1 0 0 1 2 3 3 3 2 1 1 2 2 1 0 0 1 1 1 2 3 3 3 3 3 4 4 3 3 3 3 4 4 3 1 0 0 0 0 0 0 0 1 1 0 0 0
0 0 0 0 0 1 2 3 3 4 3 1 2 3 3 2 1 0 0 1 1 1 2 3 3 3 3 4 3 2 3 4 4 4 5 4 2 1 1 1 1 1 1 1 2 2 1 1 0
0 0 0 0 0 1 2 3 3 3 2 2 3 3 3 3 2 1 1 2 4 4 3 3 4 5 6 5 3 2 3 4 4 5 4 2 2 2 2 3 2 3 4 3 3 3 2 1 1
0 0 0 0 0 1 2 3 3 2 2 3 3 3 3 3 3 2 1 4 8 8 5 4 5 9 10 8 5 2 2 3 4 5 3 2 3 4 4 4 4 4 5 5 3 2 2 1 0
0 0 0 0 0 1 2 3 2 1 2 4 4 4 4 4 5 5 5 8 10 10 7 5 6 10 11 9 6 3 1 2 4 6 5 5 5 5 5 5 5 5 5 6 4 3 2 1 1
0 0 0 0 0 1 2 3 2 1 2 4 4 5 7 7 7 8 10 12 12 11 10 7 6 9 11 8 5 2 0 2 5 9 10 9 8 7 6 5 5 5 5 7 7 6 5 3 3
0 0 0 0 0 0 1 3 2 1 2 4 5 8 11 11 8 9 12 15 15 14 15 12 8 9 11 9 5 2 1 2 5 9 13 13 10 9 7 6 5 5 4 5 6 7 7 6 5
0 0 0 0 0 0 1 2 2 1 1 4 7 12 17 16 11 9 12 15 17 18 21 17 12 13 14 11 7 4 3 3 4 7 12 15 13 11 9 7 5 4 3 3 5 7 8 7 5
0 0 0 0 0 0 1 2 2 1 1 3 8 16 22 22 16 13 14 16 17 20 24 20 16 18 17 12 8 6 5 5 4 5 10 15 13 11 10 6 4 4 3 5 7 8 7 6 5
0 0 0 0 0 0 1 3 2 1 0 2 8 18 26 28 25 21 19 19 19 22 25 22 19 20 19 14 10 7 6 7 6 5 9 14 12 10 9 6 3 4 6 8 8 9 7 6 6
0 0 0 0 0 1 2 4 3 1 0 1 6 16 26 32 34 30 24 21 22 26 28 26 21 19 17 13 10 7 6 6 5 5 8 11 10 9 10 9 6 7 9 10 11 10 8 6 6
0 0 0 0 1 1 3 5 5 3 1 2 6 14 24 33 39 37 29 24 25 29 32 30 28 24 18 13 9 7 6 6 5 7 9 11 11 12 14 14 12 12 12 12 12 11 9 7 6
0 0 0 0 1 2 3 5 8 7 6 6 8 13 21 30 38 39 35 29 27 30 33 35 37 34 25 16 10 9 9 7 7 11 14 14 14 17 18 17 16 16 13 11 11 10 9 8 7
0 0 0 0 1 1 1 3 6 9 11 12 12 14 19 26 33 39 40 35 30 30 33 39 45 43 32 21 16 14 12 9 9 13 17 16 17 20 20 19 17 15 11 9 9 10 10 9 9
0 0 0 0 0 1 1 1 3 7 12 15 16 16 18 21 28 37 41 39 34 31 33 42 52 50 37 26 20 17 14 13 12 12 14 15 17 20 22 21 20 15 10 8 9 11 11 10 11
0 0 0 0 0 1 1 2 4 6 9 12 16 16 16 18 25 35 41 42 39 35 36 45 56 55 43 30 24 20 19 17 13 9 10 12 14 17 21 24 24 21 15 12 12 13 13 12 12
0 0 0 0 0 1 2 4 5 6 6 7 10 12 13 15 20 30 38 41 39 35 37 46 54 55 45 34 28 26 23 19 14 10 9 9 11 15 21 26 27 25 21 16 15 15 15 15 16
0 0 0 0 0 1 2 4 5 6 5 4 6 8 10 11 14 22 32 36 34 33 36 43 50 51 43 35 31 29 28 24 19 15 13 12 13 16 21 25 27 25 23 20 17 18 18 19 20
0 0 0 0 0 0 1 3 5 6 5 5 6 8 9 9 11 17 27 31 30 32 36 41 47 47 42 36 31 29 30 29 26 22 19 19 19 20 21 22 23 24 23 22 20 20 20 20 20
0 0 0 0 0 0 0 2 4 5 6 7 8 9 10 12 13 17 23 26 26 28 32 37 43 45 41 35 31 30 30 31 29 26 24 23 24 25 23 21 21 21 22 23 23 22 21 19 17
0 0 0 0 0 0 1 1 2 5 7 9 9 9 12 15 16 18 20 22 22 23 27 32 38 41 39 35 32 31 31 31 29 27 25 24 25 26 25 22 21 20 20 22 25 25 22 19 16